FW0446 Weather Reports


time (UTC)temp
F
wind
direction
speed
knots
gust
knots
rain 1hr
in
rain 24hr
in
rain mn
in
humidity
%
barometer
mb
20260906092104 91 75 7.8 10.4 0.00 0.00 0.00 33 1019.2
20260906090104 91 45 8.7 8.7 0.00 0.00 0.00 32 1019.2
20260906085603 90 110 5.2 10.4 0.00 0.00 0.00 33 1019.3
20260906085104 90 122 7.8 8.7 0.00 0.00 0.00 34 1019.3
20260906084603 91 89 6.1 8.7 0.00 0.00 0.00 33 1019.2
20260906084103 90 95 5.2 10.4 0.00 0.00 0.00 33 1019.2
20260906083603 91 102 6.1 7.8 0.00 0.00 0.00 33 1019.2
20260906082603 90 84 5.2 8.7 0.00 0.00 0.00 32 1019.3
20260906082103 91 94 4.3 8.7 0.00 0.00 0.00 31 1019.3
20260906081603 91 66 5.2 7.8 0.00 0.00 0.00 32 1019.3
20260906081103 91 99 7.0 8.7 0.00 0.00 0.00 31 1019.4
20260906080104 91 103 5.2 7.8 0.00 0.00 0.00 32 1019.3
20260906075103 89 53 7.8 8.7 0.00 0.00 0.00 37 1019.2
20260906074603 89 70 6.1 10.4 0.00 0.00 0.00 32 1019.3
20260906073603 89 112 7.8 11.3 0.00 0.00 0.00 35 1019.1
20260906072603 90 117 7.0 8.7 0.00 0.00 0.00 31 1019.1
20260906072103 90 94 6.1 8.7 0.00 0.00 0.00 31 1018.9
20260906071603 90 90 7.0 10.4 0.00 0.00 0.00 31 1018.9
20260906071103 91 45 5.2 7.0 0.00 0.00 0.00 30 1018.9
20260906070104 90 30 6.1 7.8 0.00 0.00 0.00 31 1018.8
20260906065103 90 56 4.3 7.0 0.00 0.00 0.00 31 1018.7
20260906064603 89 45 5.2 7.8 0.00 0.00 0.00 31 1018.6
20260906064103 88 112 5.2 7.0 0.00 0.00 0.00 33 1018.6
20260906063603 87 127 4.3 7.0 0.00 0.00 0.00 33 1018.5
20260906063103 88 77 7.0 7.8 0.00 0.00 0.00 31 1018.5
20260906062603 89 91 5.2 8.7 0.00 0.00 0.00 30 1018.5
20260906062103 89 32 6.1 7.8 0.00 0.00 0.00 31 1018.4
20260906061104 87 46 3.5 5.2 0.00 0.00 0.00 33 1018.2
20260906060603 87 123 3.5 6.1 0.00 0.00 0.00 33 1018.2
20260906060104 88 102 3.5 5.2 0.00 0.00 0.00 32 1018.2
20260906055104 89 188 0.0 1.7 0.00 0.00 0.00 31 1018.2
20260906054603 85 126 2.6 4.3 0.00 0.00 0.00 35 1018.2
20260906054103 87 225 4.3 5.2 0.00 0.00 0.00 34 1018.2
20260906053603 87 270 2.6 4.3 0.00 0.00 0.00 33 1018.1
20260906052603 86 112 0.9 4.3 0.00 0.00 0.00 34 1018.1
20260906052104 86 270 2.6 4.3 0.00 0.00 0.00 34 1018.1
20260906051603 86 276 3.5 4.3 0.00 0.00 0.00 35 1018.1
20260906051104 86 270 2.6 2.6 0.00 0.00 0.00 34 1018.2
20260906050603 85 357 1.7 4.3 0.00 0.00 0.00 36 1018.2
20260906050104 84 3 1.7 4.3 0.00 0.00 0.00 35 1018.2
20260906045104 83 336 1.7 4.3 0.00 0.00 0.00 38 1018.2
20260906044603 82 34 0.9 1.7 0.00 0.00 0.00 38 1018.0
20260906044103 81 0 0.0 2.6 0.00 0.00 0.00 39 1018.0
20260906043603 80 308 0.0 1.7 0.00 0.00 0.00 42 1017.9
20260906043103 79 99 0.0 2.6 0.00 0.00 0.00 43 1017.9
20260906042103 78 356 2.6 4.3 0.00 0.00 0.00 45 1017.8
20260906041603 77 338 1.7 2.6 0.00 0.00 0.00 45 1017.8
20260906041103 76 22 2.6 4.3 0.00 0.00 0.00 45 1017.7
20260906040104 75 1 1.7 2.6 0.00 0.00 0.00 48 1017.7
20260906035103 75 35 0.0 1.7 0.00 0.00 0.00 44 1017.8
20260906034604 75 280 1.7 1.7 0.00 0.00 0.00 45 1017.6
20260906034103 75 21 0.9 1.7 0.00 0.00 0.00 45 1017.6
20260906033604 75 312 1.7 1.7 0.00 0.00 0.00 45 1017.6
20260906033103 75 23 2.6 4.3 0.00 0.00 0.00 45 1017.6
20260906032604 75 116 0.0 4.3 0.00 0.00 0.00 42 1017.6
20260906032103 75 243 0.9 4.3 0.00 0.00 0.00 42 1017.5
20260906031603 75 53 0.9 2.6 0.00 0.00 0.00 42 1017.5
20260906031103 75 60 0.9 2.6 0.00 0.00 0.00 43 1017.5
20260906030604 75 21 1.7 1.7 0.00 0.00 0.00 44 1017.5
20260906030105 75 315 0.9 2.6 0.00 0.00 0.00 44 1017.4
20260906025103 75 3 0.9 1.7 0.00 0.00 0.00 43 1017.3
20260906024604 75 22 0.0 1.7 0.00 0.00 0.00 42 1017.2
20260906024103 75 247 0.0 0.9 0.00 0.00 0.00 41 1017.2
20260906023604 76 109 0.9 1.7 0.00 0.00 0.00 39 1017.1
20260906023103 76 288 0.9 1.7 0.00 0.00 0.00 39 1017.1
20260906022603 76 332 2.6 4.3 0.00 0.00 0.00 38 1017.1
20260906022104 76 149 1.7 1.7 0.00 0.00 0.00 38 1017.2
20260906021604 76 240 2.6 4.3 0.00 0.00 0.00 38 1017.2
20260906021103 76 266 1.7 4.3 0.00 0.00 0.00 38 1017.2
20260906020604 76 134 0.9 5.2 0.00 0.00 0.00 38 1017.2
20260906015603 76 243 2.6 4.3 0.00 0.00 0.00 39 1017.2
20260906015104 76 260 4.3 5.2 0.00 0.00 0.00 40 1017.2
20260906014104 76 217 5.2 6.1 0.00 0.00 0.00 43 1017.2
20260906013604 76 270 5.2 6.1 0.00 0.00 0.00 45 1017.3
20260906013104 76 270 5.2 6.1 0.00 0.00 0.00 46 1017.3
20260906012604 75 270 4.3 5.2 0.00 0.00 0.00 47 1017.3
20260906012103 75 270 2.6 5.2 0.00 0.00 0.00 47 1017.4
20260906011604 76 255 3.5 5.2 0.00 0.00 0.00 46 1017.4
20260906011104 76 271 4.3 5.2 0.00 0.00 0.00 45 1017.4
20260906010603 77 241 5.2 6.1 0.00 0.00 0.00 43 1017.4
20260906010103 77 283 5.2 5.2 0.00 0.00 0.00 42 1017.4
20260906005604 76 270 4.3 5.2 0.00 0.00 0.00 40 1017.4
20260906004603 76 311 4.3 4.3 0.00 0.00 0.00 38 1017.3
20260906004104 76 270 2.6 4.3 0.00 0.00 0.00 38 1017.3
20260906003604 76 258 4.3 5.2 0.00 0.00 0.00 38 1017.3
20260906003103 75 259 4.3 5.2 0.00 0.00 0.00 40 1017.4
20260906002603 74 174 0.9 1.7 0.00 0.00 0.00 40 1017.4
20260906002104 75 271 0.9 1.7 0.00 0.00 0.00 39 1017.4
20260906001604 75 213 0.0 1.7 0.00 0.00 0.00 38 1017.4
20260906001103 75 267 0.0 1.7 0.00 0.00 0.00 38 1017.5
20260906000603 74 315 1.7 2.6 0.00 0.00 0.00 39 1017.5
20260905235603 75 284 0.0 1.7 0.00 0.00 0.00 40 1017.6
20260905235103 75 158 0.0 1.7 0.00 0.00 0.00 39 1017.6
20260905234104 76 318 1.7 4.3 0.00 0.00 0.00 39 1017.6
20260905233603 76 252 2.6 4.3 0.00 0.00 0.00 39 1017.6
20260905232603 75 264 6.1 6.1 0.00 0.00 0.00 44 1017.7
20260905232103 75 260 4.3 7.8 0.00 0.00 0.00 46 1017.8
20260905231620 76 274 4.3 7.8 0.00 0.00 0.00 45 1017.8
20260905231121 76 270 4.3 6.1 0.00 0.00 0.00 45 1017.9
20260905230621 76 240 4.3 5.2 0.00 0.00 0.00 41 1017.9
20260905230104 76 327 0.9 2.6 0.00 0.00 0.00 42 1017.9
20260905225603 76 249 0.0 2.6 0.00 0.00 0.00 42 1018.0
20260905224604 77 66 1.7 4.3 0.00 0.00 0.00 38 1018.0
20260905224103 77 49 2.6 4.3 0.00 0.00 0.00 37 1018.0
20260905223603 78 17 4.3 6.1 0.00 0.00 0.00 37 1018.0
20260905223103 78 21 2.6 6.1 0.00 0.00 0.00 37 1018.0
20260905222603 78 204 5.2 7.8 0.00 0.00 0.00 37 1018.0
20260905222103 78 98 4.3 7.0 0.00 0.00 0.00 37 1017.9
20260905221603 78 25 4.3 6.1 0.00 0.00 0.00 37 1017.9
20260905221104 78 43 2.6 7.0 0.00 0.00 0.00 36 1018.0
20260905220604 78 21 4.3 7.8 0.00 0.00 0.00 36 1018.0
20260905220105 78 24 5.2 8.7 0.00 0.00 0.00 36 1018.0
20260905215604 78 131 4.3 6.1 0.00 0.00 0.00 36 1018.0
20260905215103 78 104 4.3 5.2 0.00 0.00 0.00 35 1018.0
20260905214605 78 40 3.5 6.1 0.00 0.00 0.00 35 1018.2
20260905214104 78 89 2.6 5.2 0.00 0.00 0.00 35 1018.2
20260905213603 78 0 2.6 7.0 0.00 0.00 0.00 35 1018.1
20260905213104 78 102 0.9 5.2 0.00 0.00 0.00 35 1018.1
20260905211604 77 52 1.7 4.3 0.00 0.00 0.00 35 1018.2
20260905211104 77 286 3.5 5.2 0.00 0.00 0.00 35 1018.2
20260905210603 77 280 1.7 6.1 0.00 0.00 0.00 35 1018.2
20260905210104 78 2 2.6 5.2 0.00 0.00 0.00 35 1018.2
20260905205603 78 33 2.6 5.2 0.00 0.00 0.00 36 1018.1
20260905205104 78 71 2.6 5.2 0.00 0.00 0.00 36 1018.1
20260905204604 78 7 3.5 4.3 0.00 0.00 0.00 36 1018.1
20260905204104 78 275 2.6 6.1 0.00 0.00 0.00 36 1018.1
20260905203604 78 27 4.3 7.0 0.00 0.00 0.00 36 1018.0
20260905203103 78 31 3.5 7.0 0.00 0.00 0.00 37 1018.0
20260905202103 77 291 3.5 5.2 0.00 0.00 0.00 37 1018.2
20260905201604 77 270 4.3 5.2 0.00 0.00 0.00 39 1018.2
20260905201103 77 262 4.3 5.2 0.00 0.00 0.00 40 1018.1
20260905200604 78 265 3.5 6.1 0.00 0.00 0.00 37 1018.1
20260905200104 78 270 4.3 6.1 0.00 0.00 0.00 35 1018.1
20260905195604 78 329 7.8 11.3 0.00 0.00 0.00 35 1018.2
20260905195104 77 349 2.6 5.2 0.00 0.00 0.00 37 1018.2
20260905194603 77 13 4.3 7.0 0.00 0.00 0.00 39 1018.3
20260905194104 77 11 1.7 6.1 0.00 0.00 0.00 41 1018.3
20260905193604 77 354 2.6 6.1 0.00 0.00 0.00 42 1018.3
20260905192604 77 5 2.6 5.2 0.00 0.00 0.00 44 1018.3
20260905192104 77 75 2.6 4.3 0.00 0.00 0.00 46 1018.4
20260905191603 77 73 3.5 5.2 0.00 0.00 0.00 42 1018.4
20260905191104 77 22 2.6 5.2 0.00 0.00 0.00 43 1018.5
20260905190604 76 270 2.6 5.2 0.00 0.00 0.00 47 1018.5
20260905190104 76 257 4.3 5.2 0.00 0.00 0.00 49 1018.5
20260905185103 76 248 2.6 2.6 0.00 0.00 0.00 48 1018.3
20260905184603 76 359 1.7 2.6 0.00 0.00 0.00 50 1018.3
20260905184104 76 270 0.0 1.7 0.00 0.00 0.00 49 1018.3
20260905183604 77 69 1.7 2.6 0.00 0.00 0.00 48 1018.2
20260905182104 76 258 1.7 2.6 0.00 0.00 0.00 51 1018.1
20260905181604 76 317 2.6 4.3 0.00 0.00 0.00 51 1018.1
20260905181104 76 7 2.6 4.3 0.00 0.00 0.00 52 1018.0
20260905180604 76 53 2.6 4.3 0.00 0.00 0.00 52 1018.0
20260905180104 76 2 1.7 5.2 0.00 0.00 0.00 52 1018.0
20260905175604 76 46 1.7 4.3 0.00 0.00 0.00 52 1018.1
20260905175103 76 249 0.9 4.3 0.00 0.00 0.00 52 1018.1
20260905174603 76 268 1.7 4.3 0.00 0.00 0.00 52 1017.9
20260905174103 76 316 1.7 2.6 0.00 0.00 0.00 52 1017.9
20260905173104 76 119 2.6 5.2 0.00 0.00 0.00 52 1017.8
20260905172604 76 98 2.6 4.3 0.00 0.00 0.00 55 1017.8
20260905172103 77 112 1.7 4.3 0.00 0.00 0.00 54 1017.8
20260905171603 77 47 1.7 4.3 0.00 0.00 0.00 55 1017.8
20260905171104 77 97 2.6 2.6 0.00 0.00 0.00 55 1017.8
20260905170604 77 328 1.7 2.6 0.00 0.00 0.00 55 1017.8
20260905170104 77 52 1.7 5.2 0.00 0.00 0.00 55 1017.8
20260905165603 78 165 0.0 1.7 0.00 0.00 0.00 54 1017.9
20260905165103 78 65 0.9 2.6 0.00 0.00 0.00 53 1017.9
20260905164603 78 309 1.7 6.1 0.00 0.00 0.00 53 1017.8
20260905164103 78 22 2.6 5.2 0.00 0.00 0.00 53 1017.8
20260905163603 79 359 2.6 2.6 0.00 0.00 0.00 52 1017.7
20260905163104 79 68 2.6 5.2 0.00 0.00 0.00 52 1017.7
20260905162604 79 356 2.6 2.6 0.00 0.00 0.00 52 1017.7
20260905162104 80 22 3.5 5.2 0.00 0.00 0.00 51 1017.8
20260905161603 80 76 1.7 4.3 0.00 0.00 0.00 51 1017.8
20260905161104 80 58 2.6 6.1 0.00 0.00 0.00 50 1017.9
20260905160603 80 51 4.3 7.0 0.00 0.00 0.00 50 1017.9
20260905160104 80 333 5.2 7.8 0.00 0.00 0.00 50 1017.9
20260905155103 81 68 5.2 7.8 0.00 0.00 0.00 48 1017.8
20260905154603 81 69 6.1 8.7 0.00 0.00 0.00 47 1018.0
20260905154103 81 90 6.1 11.3 0.00 0.00 0.00 46 1018.0
20260905153604 81 79 6.1 7.8 0.00 0.00 0.00 46 1017.9
20260905152603 82 39 5.2 7.8 0.00 0.00 0.00 45 1017.9
20260905152103 82 56 7.8 11.3 0.00 0.00 0.00 45 1018.0
20260905151604 82 45 7.8 13.0 0.00 0.00 0.00 45 1018.0
20260905151104 82 55 7.8 11.3 0.00 0.00 0.00 44 1017.9
20260905150604 83 87 7.0 7.8 0.00 0.00 0.00 44 1017.9
20260905150104 83 63 7.0 11.3 0.00 0.00 0.00 43 1017.9
20260905145103 83 89 7.0 8.7 0.00 0.00 0.00 43 1017.9
20260905143604 83 40 7.8 8.7 0.00 0.00 0.00 43 1017.8
20260905143104 83 70 8.7 11.3 0.00 0.00 0.00 43 1017.8
20260905142604 84 33 8.7 12.2 0.00 0.00 0.00 42 1017.8
20260905142104 84 55 6.1 12.2 0.00 0.00 0.00 42 1017.9
20260905141604 84 81 7.8 11.3 0.00 0.00 0.00 42 1017.9
20260905141103 84 62 6.1 10.4 0.00 0.00 0.00 42 1017.9
20260905140604 84 63 8.7 11.3 0.00 0.00 0.00 41 1017.9
20260905140106 84 86 7.0 11.3 0.00 0.00 0.00 41 1017.9
20260905135604 85 67 8.7 12.2 0.00 0.00 0.00 40 1017.9
20260905134603 85 106 6.1 8.7 0.00 0.00 0.00 40 1017.9
20260905134105 85 225 5.2 7.8 0.00 0.00 0.00 40 1017.9
20260905133603 85 101 6.1 11.3 0.00 0.00 0.00 41 1018.0
20260905132603 85 0 5.2 11.3 0.00 0.00 0.00 40 1018.0
20260905132104 85 56 5.2 8.7 0.00 0.00 0.00 39 1018.0
20260905131103 85 93 6.1 12.2 0.00 0.00 0.00 39 1018.0
20260905130604 84 58 8.7 11.3 0.00 0.00 0.00 42 1018.0
20260905130104 85 28 8.7 11.3 0.00 0.00 0.00 41 1018.0
20260905125603 85 47 11.3 13.9 0.00 0.00 0.00 41 1018.0
20260905125104 86 42 8.7 12.2 0.00 0.00 0.00 40 1018.0
20260905124604 85 53 11.3 13.9 0.00 0.00 0.00 42 1018.0
20260905124104 85 55 11.3 13.9 0.00 0.00 0.00 42 1018.0
20260905123604 85 55 10.4 13.9 0.00 0.00 0.00 42 1018.2
20260905123104 85 68 12.2 14.8 0.00 0.00 0.00 43 1018.2
20260905122603 85 60 10.4 13.0 0.00 0.00 0.00 43 1018.2
20260905122104 85 98 7.8 14.8 0.00 0.00 0.00 42 1018.3
20260905121604 86 59 8.7 12.2 0.00 0.00 0.00 40 1018.3
20260905120106 85 13 10.4 13.9 0.00 0.00 0.00 40 1018.2
20260905115604 85 101 13.9 17.4 0.00 0.00 0.00 41 1018.3
20260905115104 85 90 8.7 13.0 0.00 0.00 0.00 41 1018.3
20260905114603 85 352 8.7 13.9 0.00 0.00 0.00 39 1018.2
20260905114104 86 40 10.4 15.6 0.00 0.00 0.00 37 1018.2
20260905113603 85 94 14.8 18.2 0.00 0.00 0.00 40 1018.4
20260905112604 85 77 10.4 13.9 0.00 0.00 0.00 38 1018.4
20260905112104 86 75 9.6 13.0 0.00 0.00 0.00 39 1018.6
20260905111604 86 107 10.4 15.6 0.00 0.00 0.00 38 1018.6
20260905111104 86 41 12.2 15.6 0.00 0.00 0.00 36 1018.4
20260905110604 85 71 11.3 17.4 0.00 0.00 0.00 38 1018.4
20260905110104 85 69 12.2 17.4 0.00 0.00 0.00 41 1018.4
20260905105603 85 81 13.9 18.2 0.00 0.00 0.00 40 1018.4
20260905105104 85 58 13.9 18.2 0.00 0.00 0.00 38 1018.4
20260905104604 85 73 13.0 19.1 0.00 0.00 0.00 37 1018.3
20260905103604 84 72 14.8 19.1 0.00 0.00 0.00 41 1018.2
20260905103104 85 78 14.8 18.2 0.00 0.00 0.00 40 1018.2
20260905102603 85 56 14.8 18.2 0.00 0.00 0.00 37 1018.2
20260905102104 85 75 12.2 15.6 0.00 0.00 0.00 40 1018.3
20260905101603 85 60 12.2 20.9 0.00 0.00 0.00 41 1018.3
20260905101103 85 72 16.5 19.1 0.00 0.00 0.00 40 1018.1
20260905100603 85 87 13.0 15.6 0.00 0.00 0.00 41 1018.1
20260905100104 84 47 13.9 21.7 0.00 0.00 0.00 44 1018.1
20260905095604 84 46 16.5 19.1 0.00 0.00 0.00 43 1017.9
20260905095104 85 68 14.8 19.1 0.00 0.00 0.00 41 1017.9
20260905094604 84 62 13.9 18.2 0.00 0.00 0.00 42 1018.0
20260905094103 84 63 15.6 20.9 0.00 0.00 0.00 43 1018.0
20260905093604 84 66 18.2 20.9 0.00 0.00 0.00 44 1018.0